This demonstration page uses our WeatherBlox Daily Observations layout. Learn more.

40.92945, -100.16068

Hourly Observations for December 18, 2019

Temp ( °F °C ) Dew Point ( °F °C ) Humidity (%) Winds ( mph kmh ) Pressure ( in mb ) Visibility ( mi km ) Precip ( " mm )
12:15 am 00:15 Clear 16 -8.8 15 -9.7 93 93 W 3 6 30.41 1030 10 16.0934 0 0
12:35 am 00:35 Clear 15 -9.2 13 -10.3 92 92 W 6 9 30.41 1030 10 16.0934 0 0
12:55 am 00:55 Clear 14 -9.9 12 -10.9 92 92 W 5 7 30.41 1030 10 16.0934 0 0
1:15 am 01:15 Clear 14 -10.1 12 -11.2 92 92 WNW 3 6 30.41 1030 10 16.0934 0 0
1:35 am 01:35 Clear 13 -10.3 12 -11.3 92 92 WNW 3 6 30.4 1030 10 16.0934 0 0
1:55 am 01:55 Clear 14 -9.8 13 -10.6 94 94 WNW 5 7 30.4 1029 10 16.0934 0 0
2:15 am 02:15 Clear 14 -10.1 12 -11.1 92 92 WNW 7 11 30.41 1030 10 16.0934 0 0
2:35 am 02:35 Clear 14 -9.8 13 -10.8 93 93 WNW 5 7 30.4 1029 10 16.0934 0 0
2:55 am 02:55 Clear 14 -10.2 12 -11.3 92 92 W 3 6 30.4 1030 10 16.0934 0 0
3:15 am 03:15 Clear 12 -10.9 10 -12 92 92 W 5 7 30.41 1030 10 16.0934 0 0
3:35 am 03:35 Clear 13 -10.5 11 -11.6 92 92 W 5 7 30.41 1030 10 16.0934 0 0
3:55 am 03:55 Clear 15 -9.5 13 -10.5 93 93 W 5 7 30.39 1029 10 16.0934 0 0
4:15 am 04:15 Clear 14 -9.9 13 -10.8 93 93 W 5 7 30.38 1029 10 16.0934 0 0
4:35 am 04:35 Clear 13 -10.5 11 -11.6 92 92 WSW 6 9 30.39 1029 10 16.0934 0 0
4:55 am 04:55 Clear 13 -10.6 11 -11.7 92 92 W 3 6 30.39 1029 10 16.0934 0 0
5:15 am 05:15 Clear 14 -9.8 12 -10.9 92 92 W 3 6 30.37 1028 10 16.0934 0 0
5:35 am 05:35 Clear 14 -10 12 -10.9 93 93 Calm 30.37 1028 10 16.0934 0 0
5:55 am 05:55 Clear 14 -10 13 -10.6 95 95 Calm 30.37 1028 10 16.0934 0 0
6:15 am 06:15 Clear 15 -9.7 14 -10.2 96 96 SW 3 6 30.36 1028 10 16.0934 0 0
6:35 am 06:35 Clear 13 -10.8 11 -11.6 94 94 Calm 30.38 1029 10 16.0934 0 0
6:55 am 06:55 Clear 15 -9.6 13 -10.7 92 92 WSW 3 6 30.37 1028 10 16.0934 0 0
7:15 am 07:15 Clear 15 -9.7 12 -11.3 88 88 WSW 5 7 30.37 1028 10 16.0934 0 0
7:35 am 07:35 Clear 18 -7.6 14 -10 83 83 WSW 5 7 30.35 1028 10 16.0934 0 0
7:55 am 07:55 Clear 14 -10 10 -12.1 85 85 Calm 30.36 1028 10 16.0934 0 0
8:15 am 08:15 Sunny 11 -11.4 10 -12.4 92 92 Calm 30.38 1029 10 16.0934 0 0
8:35 am 08:35 Sunny 12 -10.9 10 -12.2 90 90 Calm 30.36 1028 10 16.0934 0 0
8:55 am 08:55 Sunny 14 -9.9 12 -11.2 90 90 Calm 30.36 1028 10 16.0934 0 0
9:15 am 09:15 Sunny 17 -8.6 14 -10 90 90 Calm 30.35 1028 10 16.0934 0 0
9:35 am 09:35 Sunny 20 -6.8 16 -9.1 84 84 Calm 30.33 1027 10 16.0934 0 0
9:55 am 09:55 Sunny 22 -5.6 18 -7.9 84 84 WNW 5 7 30.31 1027 10 16.0934 0 0
10:15 am 10:15 Sunny 25 -3.7 20 -6.8 79 79 W 5 7 30.31 1026 10 16.0934 0 0
10:35 am 10:35 Sunny 29 -1.9 21 -6.3 72 72 W 3 6 30.29 1026 10 16.0934 0 0
10:55 am 10:55 Sunny 31 -0.8 21 -6 68 68 Calm 30.27 1025 10 16.0934 0 0
11:15 am 11:15 Sunny 32 0.2 22 -5.3 67 67 Calm 30.25 1024 10 16.0934 0 0
11:35 am 11:35 Sunny 33 0.8 24 -4.7 67 67 Calm 30.23 1024 10 16.0934 0 0
11:55 am 11:55 Sunny 35 1.9 24 -4.4 63 63 Calm 30.21 1023 10 16.0934 0 0
12:15 pm 12:15 Sunny 38 3.6 27 -3 62 62 W 7 11 30.18 1022 10 16.0934 0 0
12:35 pm 12:35 Sunny 40 4.6 28 -2.5 60 60 WSW 8 13 30.16 1021 10 16.0934 0 0
12:55 pm 12:55 Sunny 42 5.5 28 -2.3 58 58 WSW 9 15 30.14 1021 10 16.0934 0 0
1:15 pm 13:15 Sunny 43 5.9 28 -2.2 56 56 W 10 17 30.13 1020 10 16.0934 0 0
1:35 pm 13:35 Sunny 43 6.3 29 -1.5 58 58 W 9 15 30.12 1020 10 16.0934 0 0
1:55 pm 13:55 Sunny 44 6.9 29 -1.7 55 55 W 8 13 30.1 1019 10 16.0934 0 0
2:15 pm 14:15 Sunny 45 7 30 -1.3 56 56 W 10 17 30.09 1019 10 16.0934 0 0
2:35 pm 14:35 Sunny 46 7.7 31 -0.5 56 56 NW 7 11 30.08 1019 10 16.0934 0 0
2:55 pm 14:55 Sunny 45 7.2 31 -0.4 59 59 WNW 7 11 30.1 1019 10 16.0934 0 0
3:15 pm 15:15 Sunny 46 7.5 30 -0.9 56 56 W 8 13 30.09 1019 10 16.0934 0 0
3:35 pm 15:35 Sunny 45 7.4 30 -0.9 56 56 WNW 6 9 30.09 1019 10 16.0934 0 0
3:55 pm 15:55 Sunny 45 7 31 -0.8 58 58 NW 8 13 30.1 1019 10 16.0934 0 0
4:15 pm 16:15 Sunny 43 6.1 29 -1.4 59 59 WNW 7 11 30.11 1020 10 16.0934 0 0
4:35 pm 16:35 Sunny 41 4.9 30 -1 66 66 WNW 5 7 30.12 1020 10 16.0934 0 0
4:55 pm 16:55 Sunny 38 3.4 29 -1.8 69 69 WNW 5 7 30.14 1021 10 16.0934 0 0
5:15 pm 17:15 Clear 36 2.3 28 -2 74 74 Calm 30.15 1021 10 16.0934 0 0
5:35 pm 17:35 Clear 37 2.9 28 -2.4 68 68 NW 3 6 30.15 1021 10 16.0934 0 0
5:55 pm 17:55 Clear 34 1.3 27 -3 73 73 Calm 30.17 1022 10 16.0934 0 0
6:15 pm 18:15 Clear 33 0.6 27 -2.8 78 78 Calm 30.19 1022 10 16.0934 0 0
6:35 pm 18:35 Clear 34 1.1 27 -2.7 76 76 WNW 3 6 30.18 1022 10 16.0934 0 0
6:55 pm 18:55 Clear 29 -1.6 26 -3.2 89 89 Calm 30.2 1023 10 16.0934 0 0
7:15 pm 19:15 Clear 28 -2 26 -3.5 90 90 Calm 30.21 1023 10 16.0934 0 0
7:35 pm 19:35 Clear 28 -2.3 25 -4 88 88 W 3 6 30.22 1023 10 16.0934 0 0
7:55 pm 19:55 Clear 27 -2.8 25 -4.1 91 91 Calm 30.23 1024 10 16.0934 0 0
8:15 pm 20:15 Clear 26 -3.1 23 -4.8 88 88 Calm 30.22 1023 10 16.0934 0 0
8:35 pm 20:35 Clear 25 -3.8 23 -5 91 91 Calm 30.23 1024 10 16.0934 0 0
8:55 pm 20:55 Clear 24 -4.3 23 -5.1 94 94 Calm 30.22 1023 10 16.0934 0 0
9:15 pm 21:15 Clear 24 -4.6 22 -5.8 91 91 Calm 30.22 1023 10 16.0934 0 0
9:35 pm 21:35 Clear 23 -5 21 -6 93 93 Calm 30.23 1024 10 16.0934 0 0
9:55 pm 21:55 Clear 23 -5.1 21 -6.1 93 93 Calm 30.22 1023 10 16.0934 0 0
10:15 pm 22:15 Clear 22 -5.3 21 -6.3 93 93 NNW 3 6 30.22 1023 10 16.0934 0 0
10:35 pm 22:35 Clear 21 -6 19 -7 93 93 Calm 30.23 1024 10 16.0934 0 0
10:55 pm 22:55 Clear 21 -6 19 -7.1 92 92 Calm 30.23 1024 10 16.0934 0 0
11:15 pm 23:15 Clear 22 -5.8 20 -6.9 92 92 Calm 30.22 1023 10 16.0934 0 0
11:35 pm 23:35 Clear 21 -6.1 19 -7.1 93 93 Calm 30.23 1024 10 16.0934 0 0
11:55 pm 23:55 Clear 21 -6 19 -7 93 93 Calm 30.23 1024 10 16.0934 0 0

Powered by AerisWeather